Regional Weather Roundup
Issued by NWS

Home | Current Version | Previous Version | Graphics & Text | Print | Product List | Glossary On
Versions: 1 2 3 4 5 6 7 8 9 10 11 12 13 14 15 16 17 18 19 20 21 22 23 24 25 26 27 28 29 30 31 32 33 34 35 36 37 38 39 40 41 42 43 44 45 46 47 48 49 50
504
ASUS45 KSLC 020810
RWRUT

UTAH REGIONAL WEATHER ROUNDUP
NATIONAL WEATHER SERVICE SALT LAKE CITY UT
200 AM MDT MON MAY 02 2016

UTZ001>011-023>025-020900-

NORTHERN UTAH

CITY           SKY/WX    TMP DP  RH WIND       PRES   REMARKS
BRIGHAM CITY   CLEAR     50  23  34 SE15G25   30.15S
HILL AFB       PTCLDY    47  26  42 E20       30.13R
LOGAN          CLEAR     49  24  37 E14G31    30.17F
OGDEN          PTCLDY    49  26  41 NE12      30.12S
PROVO AIRPORT  PTCLDY    48  27  43 N5        30.13R
SALT LAKE CITY PTCLDY    49  31  49 S3        30.12S
VERNAL         CLEAR     40  24  53 CALM      30.19S
WENDOVER       PTCLDY    45  34  65 CALM      30.13S
HEBER CITY     CLEAR     34  28  80 CALM      30.18S

$$

UTZ012>022-026-027-020900-

SOUTHERN/CENTRAL UTAH

CITY           SKY/WX    TMP DP  RH WIND       PRES   REMARKS
BLANDING       CLOUDY    43  40  89 CALM      30.27F
BRYCE CANYON   MOCLDY    33  30  88 SE6       30.19F WCI  28
CEDAR CITY     CLOUDY    43  38  82 S6        30.12R
DELTA          PTCLDY    43  32  65 NE5       30.11S
HANKSVILLE     CLOUDY    50  37  62 SE5       30.16S
MILFORD        CLOUDY    49  36  61 N8        30.12R
MOAB/CYNLANDS  PTCLDY    48  39  71 E5        30.14R
PRICE          MOCLDY    43  26  51 W3        30.16S
ST GEORGE      SUNNY     55  43  62 CALM      30.10R

$$

REGIONAL REPORTS     COLORADO/ARIZONA

CITY           SKY/WX    TMP DP  RH WIND       PRES   REMARKS
CRAIG, CO      CLOUDY    36  26  67 W5        30.20R WCI  32
GRAND JUNCTION CLOUDY    47  39  74 SE10      30.17R
RIFLE          CLOUDY    45  40  82 S3        30.18S
MONTROSE       CLOUDY    42  38  85 CALM      30.22R
CORTEZ         CLOUDY    43  34  70 S3        30.21S
PAGE, AZ       CLOUDY    52  42  69 CALM      30.13S
GRAND CANYON   CLOUDY    40  33  76 E6        30.17S
KINGMAN        CLEAR     51  32  48 SE9       30.05R
FLAGSTAFF      CLOUDY    31  31 100 CALM      30.17S

$$

REGIONAL REPORTS    NEVADA/IDAHO/WYOMING

CITY           SKY/WX    TMP DP  RH WIND       PRES   REMARKS
LAS VEGAS, NV  PTCLDY    63  42  46 CALM      29.96R
ELY            PTCLDY    31  28  89 S8        30.17S WCI  23
ELKO           CLEAR     41  30  65 E5        30.13S
POCATELLO, ID  CLEAR     40  29  64 NW7       30.17R
BURLEY         CLEAR     41  34  76 CALM      30.12S
EVANSTON, WY   CLEAR     31  22  69 E12       30.23S WCI  22
ROCK SPRINGS   CLEAR     30  22  72 CALM      30.26R

$$




USA.gov is the U.S. government's official web portal to all federal, state and local government web resources and services.